Walla Walla, WA
on Wednesday, February 20, 2013

Wednesday
Previous Day Next Day
Daily Summary
 ActualAverage (KPDT)Record (KPDT)
Temperature
Mean Temperature °F 39°F  
Max Temperature 46°F 48°F 69°F (1982)
Min Temperature 34°F 31°F 7°F (1957)
Degree Days
Heating Degree Days 25 26  
Month to date heating degree days 543  
Since 1 July heating degree days 3701  
Cooling Degree Days 0 0  
Month to date cooling degree days 0  
Year to date cooling degree days 0  
Moisture
Dew Point 30°F   
Average Humidity 73    
Maximum Humidity 96    
Minimum Humidity 50    
Precipitation
Precipitation 0.02 in 0.04 in 0.78 in (1898)
Month to date precipitation 0.78  
Year to date precipitation 2.21  
Snow
Snow 0.00 in 0.10 in 1.80 in (1993)
Month to date snowfall 2.5  
Year to date snowfall 6.2  
Since 1 July snowfall 13.7  
Snow Depth in   
Wind
Wind Speed 6 mph   
Max Wind Speed 10 mph   
Max Gust Speed mph   
Visibility 9 miles   
Events Rain , Snow   

Key: T is trace of precipitation, MM is missing value
Source: NWS Daily Summary
Time(PST)TemperatureDew PointHumidity Pressure Visibility Wind DirectionWind SpeedGust SpeedPrecipitationEvents Conditions
12:53 AM 37.0°F 30.9°F 79% 29.97 in 10.0 miles SW 6.9 mph - N/A   Overcast
1:26 AM 35.6°F 30.2°F 81% 29.95 in 2.0 miles SSW 8.1 mph - 0.02 in Snow Light Snow
1:36 AM 35.6°F 32.0°F 87% 29.94 in 6.0 miles South 9.2 mph - 0.02 in Rain Light Rain
1:53 AM 35.1°F 32.0°F 89% 29.98 in 10.0 miles SSE 6.9 mph - 0.02 in   Overcast
2:53 AM 35.1°F 33.1°F 92% 29.98 in 7.0 miles Calm Calm - N/A   Overcast
3:53 AM 34.0°F 33.1°F 96% 29.99 in 8.0 miles Calm Calm - N/A   Overcast
5:53 AM 34.0°F 30.9°F 89% 30.01 in 10.0 miles SSE 3.5 mph - N/A   Mostly Cloudy
6:53 AM 35.1°F 30.0°F 82% 30.02 in 10.0 miles SSW 4.6 mph - N/A   Clear
7:53 AM 34.0°F 30.9°F 89% 30.05 in 10.0 miles South 4.6 mph - N/A   Scattered Clouds
8:53 AM 36.0°F 32.0°F 86% 30.06 in 10.0 miles South 6.9 mph - N/A   Mostly Cloudy
9:53 AM 39.0°F 32.0°F 76% 30.04 in 10.0 miles South 6.9 mph - N/A   Scattered Clouds
10:53 AM 42.1°F 33.1°F 70% 30.04 in 10.0 miles South 10.4 mph - N/A   Partly Cloudy
11:53 AM 43.0°F 30.0°F 60% 30.03 in 10.0 miles SSW 4.6 mph - N/A   Scattered Clouds
12:53 PM 44.1°F 28.9°F 55% 30.01 in 10.0 miles Variable 3.5 mph - N/A   Mostly Cloudy
1:53 PM 46.0°F 30.0°F 54% 29.99 in 10.0 miles SSW 5.8 mph - N/A   Mostly Cloudy
2:53 PM 46.9°F 30.0°F 52% 29.98 in 10.0 miles South 6.9 mph - N/A   Mostly Cloudy
3:53 PM 46.9°F 28.9°F 50% 29.98 in 10.0 miles SW 4.6 mph - N/A   Mostly Cloudy
4:53 PM 44.1°F 30.9°F 60% 29.99 in 10.0 miles West 6.9 mph - N/A   Scattered Clouds
5:53 PM 41.0°F 28.9°F 62% 29.99 in 10.0 miles SE 4.6 mph - N/A   Clear
6:53 PM 37.0°F 28.9°F 73% 30.01 in 10.0 miles SE 6.9 mph - N/A   Clear
7:53 PM 39.9°F 28.0°F 63% 30.01 in 10.0 miles South 6.9 mph - N/A   Partly Cloudy
8:53 PM 39.9°F 28.0°F 63% 30.01 in 10.0 miles SSE 9.2 mph - N/A   Clear
10:53 PM 37.0°F 28.0°F 70% 30.02 in 10.0 miles South 9.2 mph - N/A   Clear
11:53 PM 36.0°F 28.0°F 73% 30.03 in 10.0 miles South 9.2 mph - N/A   Clear
Moon Phase
Feb. 20 Feb. 25 Mar. 04 Mar. 11 Mar. 19
Sunrise:06:47 AM (PST) Moon Rise:12:42 PM (PST)
Sunset:05:27 PM (PST) Moon Set:03:21 AM (PST)

Copyright © 2014 The Weather Underground, Inc.